TimeCST,TemperatureF,Dew PointF,Humidity,Sea Level PressureIn,VisibilityMPH,Wind Direction,Wind SpeedMPH,Gust SpeedMPH,PrecipitationIn,Events,Conditions,WindDirDegrees,DateUTC
12:55 AM,47.1,47.1,100,29.78,10.0,SE,5.8,-,N/A,,Overcast,130,2011-11-26 06:55:00
1:55 AM,46.6,46.6,100,29.76,6.0,ESE,9.2,-,N/A,,Overcast,120,2011-11-26 07:55:00
2:36 AM,46.4,46.4,100,29.77,7.0,SE,6.9,-,N/A,,Scattered Clouds,130,2011-11-26 08:36:00
2:46 AM,46.4,46.4,100,29.75,7.0,ESE,6.9,-,N/A,,Mostly Cloudy,120,2011-11-26 08:46:00
2:50 AM,46.4,46.4,100,29.75,6.0,ESE,8.1,-,N/A,,Mostly Cloudy,120,2011-11-26 08:50:00
2:55 AM,46.4,46.4,100,29.75,5.0,ESE,6.9,-,N/A,,Mostly Cloudy,120,2011-11-26 08:55:00
3:06 AM,46.4,46.4,100,29.75,5.0,SE,5.8,-,N/A,,Overcast,130,2011-11-26 09:06:00
3:12 AM,46.4,46.4,100,29.74,5.0,ESE,6.9,-,N/A,,Overcast,120,2011-11-26 09:12:00
3:16 AM,46.4,46.4,100,29.74,5.0,SE,5.8,-,N/A,,Overcast,130,2011-11-26 09:16:00
3:22 AM,46.4,46.4,100,29.74,6.0,SE,5.8,-,N/A,,Overcast,130,2011-11-26 09:22:00
3:25 AM,46.4,46.4,100,29.74,6.0,ESE,5.8,-,N/A,,Overcast,120,2011-11-26 09:25:00
3:36 AM,46.4,46.4,100,29.73,6.0,SE,6.9,-,N/A,,Overcast,130,2011-11-26 09:36:00
3:52 AM,46.4,46.4,100,29.72,8.0,ESE,6.9,-,N/A,,Mostly Cloudy,120,2011-11-26 09:52:00
3:54 AM,46.4,46.4,100,29.72,8.0,SE,8.1,-,N/A,,Mostly Cloudy,130,2011-11-26 09:54:00
3:55 AM,46.2,46.2,100,29.72,8.0,SE,8.1,-,N/A,,Mostly Cloudy,130,2011-11-26 09:55:00
3:58 AM,46.4,46.4,100,29.73,8.0,SE,8.1,-,N/A,,Mostly Cloudy,130,2011-11-26 09:58:00
4:03 AM,46.4,46.4,100,29.72,8.0,SE,8.1,-,N/A,,Light Drizzle,130,2011-11-26 10:03:00
4:08 AM,46.4,46.4,100,29.71,8.0,ESE,6.9,-,N/A,Rain,Light Rain,120,2011-11-26 10:08:00
4:09 AM,46.4,46.4,100,29.72,7.0,SE,5.8,-,N/A,Rain,Light Rain,130,2011-11-26 10:09:00
4:55 AM,46.2,46.2,100,29.73,5.0,SE,6.9,-,0.08,Rain,Light Rain,140,2011-11-26 10:55:00
5:08 AM,46.4,46.4,100,29.73,4.0,SE,5.8,-,N/A,Rain,Light Rain,140,2011-11-26 11:08:00
5:55 AM,46.4,46.4,100,29.72,7.0,SE,4.6,-,0.08,Rain,Light Rain,140,2011-11-26 11:55:00
6:36 AM,46.4,46.4,100,29.71,10.0,SSE,6.9,-,N/A,,Scattered Clouds,160,2011-11-26 12:36:00
6:48 AM,48.2,48.2,100,29.71,10.0,South,6.9,-,N/A,,Mostly Cloudy,170,2011-11-26 12:48:00
6:55 AM,47.7,47.7,100,29.72,10.0,South,6.9,-,0.01,,Mostly Cloudy,170,2011-11-26 12:55:00
7:55 AM,48.6,48.6,100,29.73,10.0,South,10.4,-,N/A,,Mostly Cloudy,180,2011-11-26 13:55:00
8:02 AM,48.2,48.2,100,29.73,10.0,South,10.4,-,N/A,Rain,Light Rain,190,2011-11-26 14:02:00
8:20 AM,48.2,48.2,100,29.75,9.0,South,10.4,-,N/A,,Overcast,180,2011-11-26 14:20:00
8:22 AM,48.2,48.2,100,29.75,9.0,South,10.4,-,N/A,Rain,Light Rain,190,2011-11-26 14:22:00
8:47 AM,50.0,50.0,100,29.75,10.0,Variable,6.9,-,N/A,,Overcast,0,2011-11-26 14:47:00
8:49 AM,50.0,50.0,100,29.75,10.0,South,9.2,-,N/A,,Overcast,180,2011-11-26 14:49:00
8:55 AM,49.3,49.3,100,29.75,10.0,South,6.9,-,0.02,Rain,Light Rain,190,2011-11-26 14:55:00
8:59 AM,50.0,50.0,100,29.75,10.0,South,6.9,-,N/A,Rain,Light Rain,190,2011-11-26 14:59:00
9:05 AM,50.0,50.0,100,29.75,10.0,Variable,6.9,-,N/A,,Mostly Cloudy,0,2011-11-26 15:05:00
9:06 AM,50.0,50.0,100,29.75,10.0,South,5.8,-,N/A,,Mostly Cloudy,190,2011-11-26 15:06:00
9:16 AM,50.0,50.0,100,29.75,10.0,South,8.1,-,N/A,,Mostly Cloudy,180,2011-11-26 15:16:00
9:25 AM,50.0,50.0,100,29.74,10.0,South,8.1,-,N/A,,Mostly Cloudy,180,2011-11-26 15:25:00
9:55 AM,50.9,50.9,100,29.74,10.0,SSW,8.1,-,0.00,,Overcast,200,2011-11-26 15:55:00
10:20 AM,51.8,51.8,100,29.74,10.0,SW,6.9,-,N/A,,Overcast,230,2011-11-26 16:20:00
10:31 AM,51.8,51.8,100,29.74,10.0,SW,6.9,-,N/A,,Overcast,230,2011-11-26 16:31:00
10:38 AM,51.8,51.8,100,29.73,10.0,SW,8.1,-,N/A,,Overcast,230,2011-11-26 16:38:00
10:55 AM,51.6,51.6,100,29.73,10.0,WSW,8.1,-,N/A,,Overcast,240,2011-11-26 16:55:00
11:30 AM,51.8,51.8,100,29.73,10.0,WSW,9.2,-,N/A,,Overcast,240,2011-11-26 17:30:00
11:41 AM,51.8,51.8,100,29.73,10.0,WSW,10.4,-,N/A,,Overcast,240,2011-11-26 17:41:00
11:55 AM,51.8,51.8,100,29.73,10.0,WSW,9.2,-,N/A,,Overcast,240,2011-11-26 17:55:00
12:29 PM,51.8,51.8,100,29.73,10.0,WSW,4.6,-,N/A,,Light Drizzle,250,2011-11-26 18:29:00
12:55 PM,51.6,51.6,100,29.73,9.0,Calm,Calm,-,0.00,,Light Drizzle,0,2011-11-26 18:55:00
1:12 PM,51.8,51.8,100,29.73,9.0,WNW,4.6,-,N/A,,Light Drizzle,290,2011-11-26 19:12:00
1:30 PM,51.8,51.8,100,29.73,8.0,WNW,4.6,-,N/A,,Light Drizzle,290,2011-11-26 19:30:00
1:33 PM,51.8,51.8,100,29.73,8.0,WNW,4.6,-,N/A,,Light Drizzle,290,2011-11-26 19:33:00
1:36 PM,51.8,51.8,100,29.72,7.0,WNW,4.6,-,N/A,Rain,Light Rain,290,2011-11-26 19:36:00
1:55 PM,51.3,51.3,100,29.72,6.0,West,3.5,-,0.01,Rain,Light Rain,270,2011-11-26 19:55:00
2:09 PM,51.8,51.8,100,29.73,6.0,West,3.5,-,N/A,,Light Drizzle,260,2011-11-26 20:09:00
2:55 PM,50.7,50.7,100,29.75,4.0,WSW,4.6,-,0.01,,Light Drizzle,250,2011-11-26 20:55:00
3:13 PM,50.0,50.0,100,29.74,2.5,West,3.5,-,N/A,Rain,Light Rain,280,2011-11-26 21:13:00
3:18 PM,50.0,50.0,100,29.75,2.0,West,4.6,-,N/A,Rain,Light Rain,270,2011-11-26 21:18:00
3:23 PM,50.0,50.0,100,29.75,2.0,West,4.6,-,N/A,Rain,Light Rain,280,2011-11-26 21:23:00
3:25 PM,50.0,50.0,100,29.75,2.5,WNW,15.0,21.9,N/A,Rain,Light Rain,290,2011-11-26 21:25:00
3:27 PM,50.0,50.0,100,29.75,3.0,WNW,17.3,21.9,N/A,Rain,Light Rain,290,2011-11-26 21:27:00
3:29 PM,50.0,50.0,100,29.75,3.0,West,18.4,21.9,N/A,Rain,Light Rain,280,2011-11-26 21:29:00
3:30 PM,48.2,48.2,100,29.76,4.0,West,17.3,21.9,N/A,Rain,Light Rain,280,2011-11-26 21:30:00
3:33 PM,48.2,48.2,100,29.76,7.0,West,13.8,21.9,N/A,Rain,Light Rain,280,2011-11-26 21:33:00
3:35 PM,48.2,48.2,100,29.76,9.0,West,13.8,-,N/A,Rain,Light Rain,270,2011-11-26 21:35:00
3:42 PM,46.4,46.4,100,29.77,10.0,West,12.7,-,N/A,,Light Drizzle,270,2011-11-26 21:42:00
3:55 PM,46.0,45.9,99,29.77,10.0,West,12.7,-,0.02,,Light Drizzle,280,2011-11-26 21:55:00
4:03 PM,46.4,46.4,100,29.77,10.0,West,10.4,-,N/A,,Overcast,270,2011-11-26 22:03:00
4:08 PM,44.6,44.6,100,29.77,10.0,West,13.8,-,N/A,,Overcast,270,2011-11-26 22:08:00
4:11 PM,44.6,44.6,100,29.77,10.0,West,16.1,-,N/A,,Light Drizzle,280,2011-11-26 22:11:00
4:40 PM,44.6,44.6,100,29.80,10.0,West,11.5,-,N/A,,Light Drizzle,280,2011-11-26 22:40:00
4:55 PM,43.3,43.3,100,29.80,9.0,WNW,16.1,-,0.00,,Light Drizzle,290,2011-11-26 22:55:00
5:02 PM,42.8,42.8,100,29.79,9.0,West,12.7,-,N/A,,Overcast,280,2011-11-26 23:02:00
5:55 PM,42.1,42.1,100,29.81,10.0,West,10.4,-,0.00,,Overcast,280,2011-11-26 23:55:00
6:13 PM,42.8,42.8,100,29.81,10.0,WNW,10.4,-,N/A,,Overcast,290,2011-11-27 00:13:00
6:53 PM,42.8,42.8,100,29.83,10.0,WNW,9.2,-,N/A,,Overcast,290,2011-11-27 00:53:00
6:55 PM,42.1,42.1,100,29.83,10.0,WNW,10.4,-,N/A,,Overcast,290,2011-11-27 00:55:00
7:07 PM,42.8,42.8,100,29.83,10.0,WNW,10.4,-,N/A,,Overcast,300,2011-11-27 01:07:00
7:20 PM,42.8,42.8,100,29.82,10.0,NW,16.1,-,N/A,,Overcast,310,2011-11-27 01:20:00
7:30 PM,42.8,42.8,100,29.83,10.0,NW,15.0,21.9,N/A,,Overcast,310,2011-11-27 01:30:00
7:51 PM,41.0,41.0,100,29.84,10.0,NW,17.3,26.5,N/A,,Overcast,320,2011-11-27 01:51:00
7:55 PM,41.0,41.0,100,29.84,10.0,NW,18.4,26.5,0.01,,Overcast,310,2011-11-27 01:55:00
8:55 PM,39.6,39.6,100,29.86,10.0,NW,17.3,25.3,N/A,,Overcast,310,2011-11-27 02:55:00
9:32 PM,39.2,39.2,100,29.86,10.0,NW,13.8,-,N/A,,Overcast,310,2011-11-27 03:32:00
9:34 PM,39.2,39.2,100,29.86,10.0,NW,13.8,-,N/A,,Overcast,310,2011-11-27 03:34:00
9:37 PM,39.2,39.2,100,29.86,10.0,NW,13.8,-,N/A,,Overcast,310,2011-11-27 03:37:00
9:52 PM,37.4,37.4,100,29.87,10.0,NW,12.7,24.2,N/A,,Light Drizzle,310,2011-11-27 03:52:00
9:55 PM,38.1,38.1,100,29.87,9.0,NW,13.8,24.2,0.00,,Light Drizzle,310,2011-11-27 03:55:00
10:11 PM,37.4,37.4,100,29.88,8.0,NW,13.8,-,N/A,Rain,Light Rain,310,2011-11-27 04:11:00
10:40 PM,37.4,37.4,100,29.88,10.0,NW,17.3,-,N/A,Rain,Light Rain,310,2011-11-27 04:40:00
10:47 PM,37.4,37.4,100,29.88,10.0,NW,17.3,24.2,N/A,,Overcast,310,2011-11-27 04:47:00
10:55 PM,37.0,37.0,100,29.88,10.0,NW,13.8,24.2,0.00,,Overcast,320,2011-11-27 04:55:00
11:04 PM,37.4,37.4,100,29.89,10.0,NW,16.1,-,N/A,,Overcast,310,2011-11-27 05:04:00
11:17 PM,37.4,37.4,100,29.89,10.0,NW,17.3,25.3,N/A,,Overcast,310,2011-11-27 05:17:00
11:19 PM,37.4,37.4,100,29.89,10.0,NW,13.8,25.3,N/A,,Overcast,310,2011-11-27 05:19:00
11:50 PM,35.6,35.6,100,29.90,10.0,NW,17.3,24.2,N/A,Rain,Light Rain,320,2011-11-27 05:50:00
11:51 PM,35.6,35.6,100,29.90,10.0,NW,13.8,24.2,N/A,Rain,Light Rain,320,2011-11-27 05:51:00
11:52 PM,35.6,35.6,100,29.90,10.0,NW,13.8,24.2,N/A,,Overcast,320,2011-11-27 05:52:00
11:55 PM,36.3,36.3,100,29.90,10.0,NW,13.8,24.2,0.00,,Overcast,320,2011-11-27 05:55:00
11:56 PM,35.6,35.6,100,29.90,10.0,NW,13.8,24.2,N/A,,Overcast,320,2011-11-27 05:56:00